User: anonymous   Login
Location: Unspecified
(0.0000°N, 0.0000°E)
Time: 01:58:15
(UTC+09:00)
Language:

HTV-7 - Orbit

View from above orbital plane
View from above orbital plane
View from above satellite
View from above satellite

Ground track
Ground track

The orbit data is extracted from the following two-line orbital elements,

1 43630U 18073A   18314.65238315  .00008446  00000-0  10157-3 0  9994
2 43630  51.6368   8.7198 0008180 267.4290 218.8982 15.61761615  7618
Epoch (UTC): 10 November 2018 15:39:25
Eccentricity: 0.0008180
inclination: 51.6368°
perigee height: 377 km
apogee height: 388 km
right ascension of ascending node: 8.7198°
argument of perigee: 267.4290°
revolutions per day: 15.61761615
mean anomaly at epoch: 218.8982°
orbit number at epoch: 761

The dashed part of the orbit path shows where the satellite is in the earth's shadow,  

DLR